Hourly Weather Kyzyloba

Today, 27 October, Tuesday

Time Temperature Precipitation Wind Pressure Humidity
00:00 +4°C° 0 mm 4 mps 768 mmHg 74%
01:00 +3°C° 0 mm 4 mps 768 mmHg 74%
02:00 +3°C° 0 mm 4 mps 769 mmHg 74%
03:00 +1°C° 0 mm 4 mps 769 mmHg 74%
04:00 0°C° 0 mm 4 mps 770 mmHg 75%
05:00 +1°C° 0 mm 3 mps 770 mmHg 76%
06:00 0°C° 0 mm 3 mps 771 mmHg 77%
07:00 +1°C° 0 mm 3 mps 771 mmHg 71%
08:00 0°C° 0 mm 4 mps 771 mmHg 64%
09:00 +1°C° 0 mm 4 mps 772 mmHg 57%
10:00 +3°C° 0 mm 4 mps 772 mmHg 51%
11:00 +4°C° 0 mm 4 mps 772 mmHg 45%
12:00 +5°C° 0 mm 3 mps 773 mmHg 39%
13:00 +5°C° 0 mm 3 mps 773 mmHg 39%
14:00 +5°C° 0 mm 3 mps 773 mmHg 38%
15:00 +5°C° 0 mm 3 mps 773 mmHg 38%
16:00 +5°C° 0 mm 3 mps 773 mmHg 42%
17:00 +4°C° 0 mm 3 mps 774 mmHg 47%
18:00 +3°C° 0 mm 3 mps 774 mmHg 51%
19:00 +2°C° 0 mm 3 mps 774 mmHg 55%
20:00 +2°C° 0 mm 3 mps 774 mmHg 58%
21:00 +1°C° 0 mm 3 mps 775 mmHg 61%
22:00 +1°C° 0 mm 3 mps 775 mmHg 63%
23:00 +1°C° 0 mm 3 mps 775 mmHg 65%

Tomorrow, 28 October, Wednesday

Time Temperature Precipitation Wind Pressure Humidity
00:00 +1°C° 0 mm 2 mps 775 mmHg 67%
01:00 +1°C° 0 mm 2 mps 775 mmHg 68%
02:00 +1°C° 0 mm 2 mps 775 mmHg 68%
03:00 -1°C° 0 mm 2 mps 776 mmHg 69%
04:00 -1°C° 0 mm 2 mps 776 mmHg 69%
05:00 -1°C° 0 mm 2 mps 775 mmHg 69%
06:00 -1°C° 0 mm 2 mps 775 mmHg 70%
07:00 +1°C° 0 mm 2 mps 776 mmHg 64%
08:00 +1°C° 0 mm 3 mps 776 mmHg 58%
09:00 +3°C° 0 mm 3 mps 776 mmHg 53%
10:00 +4°C° 0 mm 3 mps 776 mmHg 48%
11:00 +5°C° 0 mm 3 mps 776 mmHg 43%
12:00 +7°C° 0 mm 3 mps 775 mmHg 39%
13:00 +8°C° 0 mm 3 mps 775 mmHg 38%
14:00 +8°C° 0 mm 3 mps 775 mmHg 37%
15:00 +9°C° 0 mm 3 mps 775 mmHg 36%
16:00 +7°C° 0 mm 3 mps 775 mmHg 40%
17:00 +5°C° 0 mm 3 mps 775 mmHg 44%
18:00 +4°C° 0 mm 3 mps 775 mmHg 47%
19:00 +4°C° 0 mm 3 mps 775 mmHg 49%
20:00 +3°C° 0 mm 3 mps 775 mmHg 51%
21:00 +3°C° 0 mm 3 mps 775 mmHg 53%
22:00 +3°C° 0 mm 3 mps 775 mmHg 53%
23:00 +3°C° 0 mm 3 mps 774 mmHg 54%

Day after tomorrow, 29 October, Thursday

Time Temperature Precipitation Wind Pressure Humidity
00:00 +2°C° 0 mm 3 mps 774 mmHg 55%
01:00 +2°C° 0 mm 3 mps 774 mmHg 55%
02:00 +2°C° 0 mm 3 mps 774 mmHg 56%
03:00 +2°C° 0 mm 3 mps 774 mmHg 56%
04:00 +1°C° 0 mm 4 mps 774 mmHg 57%
05:00 +1°C° 0 mm 4 mps 774 mmHg 57%
06:00 0°C° 0 mm 4 mps 774 mmHg 58%
07:00 +3°C° 0 mm 4 mps 774 mmHg 55%
08:00 +3°C° 0 mm 5 mps 774 mmHg 51%
09:00 +6°C° 0 mm 5 mps 774 mmHg 48%
10:00 +7°C° 0 mm 6 mps 774 mmHg 45%
11:00 +9°C° 0 mm 6 mps 774 mmHg 43%
12:00 +10°C° 0 mm 7 mps 773 mmHg 40%
13:00 +10°C° 0 mm 6 mps 773 mmHg 41%
14:00 +10°C° 0 mm 6 mps 773 mmHg 42%
15:00 +10°C° 0 mm 6 mps 772 mmHg 43%
16:00 +9°C° 0 mm 5 mps 772 mmHg 47%
17:00 +8°C° 0 mm 5 mps 772 mmHg 51%
18:00 +7°C° 0 mm 5 mps 772 mmHg 56%
19:00 +7°C° 0 mm 5 mps 772 mmHg 56%
20:00 +7°C° 0 mm 5 mps 772 mmHg 57%
21:00 +6°C° 0 mm 5 mps 772 mmHg 58%
22:00 +6°C° 0 mm 5 mps 772 mmHg 58%
23:00 +6°C° 0 mm 5 mps 771 mmHg 59%

30 October, Friday

Time Temperature Precipitation Wind Pressure Humidity
00:00 +6°C° 0 mm 5 mps 771 mmHg 59%
01:00 +5°C° 0 mm 5 mps 771 mmHg 60%
02:00 +5°C° 0 mm 5 mps 771 mmHg 62%
03:00 +5°C° 0 mm 5 mps 770 mmHg 63%
04:00 +3°C° 0 mm 5 mps 770 mmHg 65%
05:00 +3°C° 0 mm 5 mps 770 mmHg 67%
06:00 +3°C° 0 mm 5 mps 770 mmHg 69%
07:00 +4°C° 0 mm 6 mps 770 mmHg 65%
08:00 +5°C° 0 mm 6 mps 770 mmHg 61%
09:00 +6°C° 0 mm 7 mps 770 mmHg 57%
10:00 +8°C° 0 mm 7 mps 770 mmHg 52%
11:00 +9°C° 0 mm 7 mps 770 mmHg 47%
12:00 +10°C° 0 mm 7 mps 769 mmHg 42%
13:00 +10°C° 0 mm 6 mps 769 mmHg 40%
14:00 +11°C° 0 mm 6 mps 769 mmHg 39%
15:00 +11°C° 0 mm 6 mps 769 mmHg 37%
16:00 +10°C° 0 mm 5 mps 768 mmHg 39%
17:00 +10°C° 0 mm 5 mps 768 mmHg 41%
18:00 +9°C° 0 mm 5 mps 768 mmHg 43%
19:00 +9°C° 0 mm 5 mps 768 mmHg 44%
20:00 +9°C° 0 mm 5 mps 768 mmHg 45%
21:00 +9°C° 0 mm 5 mps 768 mmHg 46%
22:00 +9°C° 0 mm 5 mps 768 mmHg 47%
23:00 +9°C° 0 mm 5 mps 768 mmHg 48%

31 October, Saturday

Time Temperature Precipitation Wind Pressure Humidity
00:00 +9°C° 0 mm 5 mps 767 mmHg 50%
01:00 +9°C° 0 mm 6 mps 767 mmHg 51%
02:00 +8°C° 0 mm 6 mps 767 mmHg 52%
03:00 +8°C° 0 mm 6 mps 767 mmHg 53%
04:00 +8°C° 0 mm 6 mps 767 mmHg 54%
05:00 +7°C° 0 mm 6 mps 767 mmHg 55%
06:00 +5°C° 0 mm 6 mps 767 mmHg 55%
07:00 +7°C° 0 mm 6 mps 767 mmHg 53%
08:00 +7°C° 0 mm 6 mps 767 mmHg 51%
09:00 +8°C° 0 mm 6 mps 767 mmHg 49%
10:00 +9°C° 0 mm 6 mps 767 mmHg 46%
11:00 +10°C° 0 mm 6 mps 767 mmHg 42%
12:00 +12°C° 0 mm 5 mps 767 mmHg 39%
13:00 +12°C° 0 mm 5 mps 766 mmHg 39%
14:00 +13°C° 0 mm 4 mps 766 mmHg 38%
15:00 +13°C° 0 mm 4 mps 766 mmHg 37%
16:00 +12°C° 0 mm 4 mps 766 mmHg 40%
17:00 +11°C° 0 mm 3 mps 766 mmHg 42%
18:00 +10°C° 0 mm 3 mps 766 mmHg 45%
19:00 +10°C° 0 mm 3 mps 766 mmHg 46%
20:00 +10°C° 0 mm 3 mps 766 mmHg 48%
21:00 +9°C° 0 mm 3 mps 766 mmHg 49%
22:00 +9°C° 0 mm 3 mps 766 mmHg 50%
23:00 +8°C° 0 mm 2 mps 767 mmHg 51%

1 November, Sunday

Time Temperature Precipitation Wind Pressure Humidity
00:00 +8°C° 0 mm 2 mps 767 mmHg 53%
01:00 +8°C° 0 mm 2 mps 767 mmHg 53%
02:00 +7°C° 0 mm 2 mps 767 mmHg 54%
03:00 +7°C° 0 mm 2 mps 767 mmHg 54%
04:00 +7°C° 0 mm 2 mps 767 mmHg 55%
05:00 +7°C° 0 mm 2 mps 767 mmHg 55%
06:00 +6°C° 0 mm 2 mps 767 mmHg 55%
07:00 +8°C° 0 mm 2 mps 767 mmHg 51%
08:00 +9°C° 0 mm 2 mps 767 mmHg 47%
09:00 +10°C° 0 mm 2 mps 767 mmHg 43%
10:00 +13°C° 0 mm 2 mps 768 mmHg 40%
11:00 +14°C° 0 mm 2 mps 768 mmHg 38%
12:00 +15°C° 0 mm 2 mps 768 mmHg 35%
13:00 +15°C° 0 mm 1 mps 768 mmHg 35%
14:00 +15°C° 0 mm 1 mps 768 mmHg 35%
15:00 +16°C° 0 mm 1 mps 768 mmHg 35%
16:00 +14°C° 0 mm 1 mps 768 mmHg 39%
17:00 +13°C° 0 mm 2 mps 768 mmHg 42%
18:00 +10°C° 0 mm 2 mps 768 mmHg 46%
19:00 +10°C° 0 mm 2 mps 768 mmHg 48%
20:00 +9°C° 0 mm 2 mps 769 mmHg 49%
21:00 +9°C° 0 mm 2 mps 769 mmHg 51%
22:00 +8°C° 0 mm 2 mps 769 mmHg 52%
23:00 +8°C° 0 mm 2 mps 769 mmHg 53%
Show more

We Need Your Consent

Meteoprog and our Service Providers may store and access personal data such as cookies, device identifiers or other similar technologies on your device and process such data to personalise content and ads, as well as provide social media features and to analyse the traffic.

  • Store and/or access information on your device

    Cookies, device identifiers or other information can be stored or accessed on your device for the purposes indicated above.

  • Personalised ads and content, ad and content measurement, audience insights, and products development

    Ads and content can be personalised based on a profile. More data can be added to better personalise ads and content. Ad and content performance can be measured. Insights about the audience who saw the ads and content can be derived. Such data can be used to develop or improve user’s experience, systems and software.

By clicking ‘I Agree’ you will allow the use of indicated cookies, device identifiers, web beacons or other similar technologies. Your settings can be changed in the browser on your device.

For certain purposes, legitimate interests may be relied on, rather than consent. You can read more about this in our Privacy and Cookie Policy.